TimeEST,TemperatureF,Dew PointF,Humidity,Sea Level PressureIn,VisibilityMPH,Wind Direction,Wind SpeedMPH,Gust SpeedMPH,PrecipitationIn,Events,Conditions,WindDirDegrees,DateUTC
12:53 AM,70.0,64.9,84,29.96,10.0,SSW,9.2,-,N/A,,Clear,210,2013-02-08 05:53:00
1:53 AM,70.0,64.9,84,29.94,10.0,SSW,12.7,-,N/A,,Clear,210,2013-02-08 06:53:00
2:53 AM,70.0,66.0,87,29.91,10.0,SSW,15.0,-,N/A,,Clear,200,2013-02-08 07:53:00
3:53 AM,70.0,68.0,93,29.92,10.0,SSW,12.7,-,N/A,,Clear,210,2013-02-08 08:53:00
4:53 AM,70.0,69.1,97,29.94,10.0,SW,10.4,-,N/A,,Clear,230,2013-02-08 09:53:00
5:53 AM,70.0,69.1,97,29.94,9.0,SW,11.5,-,N/A,,Clear,230,2013-02-08 10:53:00
6:53 AM,70.0,69.1,97,29.96,8.0,SW,6.9,-,N/A,,Clear,230,2013-02-08 11:53:00
7:53 AM,70.0,70.0,100,29.98,7.0,WSW,8.1,-,N/A,,Partly Cloudy,240,2013-02-08 12:53:00
8:53 AM,72.0,70.0,93,30.01,9.0,WSW,9.2,-,N/A,,Scattered Clouds,240,2013-02-08 13:53:00
9:08 AM,73.4,69.8,88,30.01,9.0,WSW,8.1,-,N/A,,Mostly Cloudy,240,2013-02-08 14:08:00
9:53 AM,73.9,70.0,87,30.03,9.0,West,6.9,-,N/A,,Mostly Cloudy,260,2013-02-08 14:53:00
10:03 AM,73.4,71.6,94,30.03,9.0,West,9.2,-,N/A,,Overcast,280,2013-02-08 15:03:00
10:12 AM,73.4,71.6,94,30.03,9.0,West,10.4,-,N/A,,Overcast,270,2013-02-08 15:12:00
10:53 AM,73.9,70.0,87,30.04,9.0,WNW,9.2,-,N/A,,Overcast,290,2013-02-08 15:53:00
11:16 AM,75.2,69.8,83,30.04,10.0,NW,8.1,-,N/A,,Scattered Clouds,310,2013-02-08 16:16:00
11:53 AM,75.9,69.1,79,30.03,10.0,WNW,10.4,-,N/A,,Clear,300,2013-02-08 16:53:00
12:53 PM,77.0,66.9,71,30.02,10.0,NW,9.2,-,N/A,,Clear,310,2013-02-08 17:53:00
1:53 PM,77.0,68.0,74,30.00,10.0,West,9.2,-,N/A,,Clear,280,2013-02-08 18:53:00
2:53 PM,75.9,66.9,74,29.99,10.0,WNW,8.1,-,N/A,,Clear,290,2013-02-08 19:53:00
3:53 PM,75.9,62.1,62,29.99,10.0,West,8.1,-,N/A,,Clear,270,2013-02-08 20:53:00
4:53 PM,73.0,63.0,71,29.99,10.0,West,9.2,-,N/A,,Clear,280,2013-02-08 21:53:00
5:53 PM,70.0,63.0,78,30.00,10.0,WNW,10.4,-,N/A,,Clear,290,2013-02-08 22:53:00
6:53 PM,68.0,63.0,84,30.01,10.0,WNW,8.1,-,N/A,,Clear,300,2013-02-08 23:53:00
7:53 PM,68.0,63.0,84,30.02,10.0,NW,5.8,-,N/A,,Clear,310,2013-02-09 00:53:00
8:53 PM,66.9,63.0,87,30.04,10.0,NW,4.6,-,N/A,,Clear,320,2013-02-09 01:53:00
9:53 PM,66.9,63.0,87,30.06,10.0,NW,4.6,-,N/A,,Clear,320,2013-02-09 02:53:00
10:53 PM,66.9,64.9,93,30.06,10.0,NNW,5.8,-,N/A,,Clear,330,2013-02-09 03:53:00
11:53 PM,64.9,63.0,93,30.06,10.0,North,3.5,-,N/A,,Clear,350,2013-02-09 04:53:00